Location: Lamoine Observatory
(44.4551°N, 68.3470°W)
Time: 07:59:48
(UTC-05:00)

Daily predictions for brighter satellites

Satellite Brightness Start Highest point End
(mag) Time Altitude Azimuth Time Altitude Azimuth Time Altitude Azimuth
COSMOS 2428 3.1 16:48:25 10° S 16:53:49 45° ESE 16:59:14 10° NE
OTV 4 2.5 16:51:32 10° SW 16:53:56 22° S 16:56:20 10° ESE
Cosmos 1484 Rocket 3.4 16:53:01 10° SE 16:56:34 34° ENE 17:00:11 10° N
Cosmos 1464 Rocket 4.4 16:50:48 10° NNW 16:56:56 69° W 17:03:00 10° S
Cosmos 1766 Rocket 3.6 16:54:20 10° S 16:58:46 70° E 17:03:13 10° NNE
Cosmos 2237 4.3 16:53:28 10° S 16:59:03 61° ESE 17:04:42 10° NNE
Cosmos 1674 3.1 16:56:29 10° SSE 17:00:06 43° E 17:03:47 10° NNE
Cosmos 2237 Rocket 3.6 16:57:13 10° SE 17:00:45 17° E 17:04:18 10° ENE
BREEZE M DEB (TANK) 2.3 16:58:17 10° WNW 17:02:12 41° N 17:04:20 10° E
MOS 1 4.3 16:56:48 10° SSE 17:02:27 86° ENE 17:08:09 10° NNW
ATLAS 3B R/B 4.4 16:57:27 10° WNW 17:03:09 23° NNW 17:08:41 10° NNE
COSMO-SKYMED 1 3.4 17:02:18 10° NNE 17:06:10 31° E 17:10:01 10° SSE
USA 215 3.3 17:00:18 10° ESE 17:06:46 65° NNE 17:13:15 10° NW
Cosmos 2228 Rocket 3.2 17:02:57 10° N 17:07:17 53° ENE 17:11:36 10° SSE
CZ-4 R/B 1.9 17:03:31 10° S 17:07:20 62° WSW 17:11:13 10° NNW
Cosmos 2150 Rocket 4.4 17:03:32 10° NNW 17:08:45 71° WSW 17:13:52 10° S
Lacrosse 5 rocket 2.6 17:05:58 10° NNW 17:08:51 21° NNE 17:11:28 12° ENE
Thor Agena Rocket 3.6 17:03:57 10° NNE 17:09:13 71° ESE 17:14:24 10° S
SPOT 3 Rocket 3.6 17:04:30 10° SSE 17:09:39 87° WSW 17:14:51 10° NNW
YAOGAN 1 2.6 17:05:28 10° SSE 17:09:47 87° WSW 17:14:09 10° NNW
Cosmos 1898 Rocket 4.4 17:05:52 10° NNW 17:11:06 56° WSW 17:16:17 10° S
Cosmos 1300 3.7 17:09:48 10° NNE 17:13:01 24° ENE 17:16:11 10° SE
Meteor 2-2 Rocket 4.3 17:08:30 10° N 17:14:05 59° ENE 17:19:38 10° SSE
NOSS 3-2 (C) 4.4 17:11:16 10° WSW 17:17:10 44° NW 17:23:38 10° NNE
Cosmos 1125 Rocket 3.9 17:13:48 10° N 17:18:40 38° ENE 17:23:29 10° SE
Cosmos 1814 Rocket 4.1 17:13:31 10° SSW 17:18:52 85° WNW 17:24:16 10° NNE
Cosmos 1408 Rocket 4.0 17:16:09 10° SSW 17:20:35 68° W 17:25:01 10° N
Cosmos 1726 2.9 17:18:03 10° NNE 17:21:25 30° ENE 17:24:47 10° SE
Cosmos 2322 4.3 17:16:19 10° SW 17:21:55 60° WNW 17:27:35 10° NNE
Cosmos 990 Rocket 4.2 17:17:58 10° NNW 17:23:14 77° WSW 17:28:29 10° SSE
IDEFIX/ARIANE 42P 3.5 17:18:29 10° S 17:23:33 53° W 17:28:41 10° NNW
USA 116 4.0 17:20:36 10° N 17:23:52 53° WNW 17:26:55 10° SSW
MONITOR-E 4.1 17:23:20 10° SSE 17:26:30 85° ENE 17:29:42 10° N
Tsikada Rocket 4.2 17:20:14 10° S 17:26:37 81° W 17:33:04 10° N
SL-16 R/B 4.2 17:25:33 10° W 17:29:57 22° NW 17:34:21 10° N
Cosmos 332 Rocket 3.8 17:26:25 10° S 17:31:08 59° ESE 17:35:56 10° NNE
Cosmos 1328 4.1 17:28:15 10° SSE 17:31:58 41° E 17:35:42 10° NNE
Cosmos 1844 Rocket 2.8 17:27:40 10° NNW 17:33:22 86° WSW 17:39:01 10° SSE
Cosmos 2333 4.1 17:30:45 10° SSW 17:36:21 84° ESE 17:41:59 10° NNE
Meteor 1-28 Rocket 3.5 17:34:58 10° NNE 17:38:33 44° E 17:42:07 10° S
Cosmos 841 Rocket 3.5 17:34:14 10° SSW 17:39:30 83° ESE 17:44:48 10° NNE
Cosmos 1743 Rocket 3.6 17:37:19 10° S 17:41:48 84° W 17:46:18 10° N
Cosmos 2058 3.6 17:38:12 10° SSE 17:41:50 31° E 17:43:57 19° NE
SJ-6B 3.4 17:39:50 10° SE 17:43:35 37° ENE 17:47:24 10° N
Cosmos 1328 Rocket 4.2 17:42:33 10° NNW 17:46:56 61° W 17:51:18 10° S
Cosmos 1980 4.0 17:41:59 10° S 17:47:20 45° ESE 17:51:18 18° NE
Cosmos 2360 Rocket 3.6 17:42:23 10° WSW 17:47:30 35° NW 17:52:40 10° N
CZ-4C R/B 4.5 17:45:12 10° NNW 17:48:24 14° N 17:51:49 10° NNE
CENTAUR R/B 2.7 17:45:06 10° SW 17:51:13 73° NW 17:57:37 13° NE
Cosmos 1515 Rocket 3.9 17:48:09 10° NNW 17:52:37 71° W 17:57:03 10° S
Cosmos 1634 Rocket 4.0 17:47:54 10° N 17:54:08 85° W 18:00:18 10° S
ALOS 3.0 17:50:07 10° SE 17:54:11 31° ENE 17:58:16 10° N
SKYMED 2 3.6 17:50:03 10° N 17:54:25 82° WNW 17:58:46 10° SSW
Cosmos 2333 Rocket 2.2 17:51:46 10° S 17:57:20 64° ESE 18:01:37 18° NE
Cosmos 44 3.9 17:52:46 10° S 17:57:42 42° ESE 17:59:39 29° ENE
SL-19 R/B 4.5 17:55:21 10° SE 18:01:05 50° ENE 18:06:31 10° N
Cosmos 1805 Rocket 4.2 17:57:29 10° SSE 18:01:26 33° E 18:01:26 33° E
Cosmos 2151 2.8 17:57:38 10° S 18:01:50 73° E 18:05:46 12° NNE
Cosmos 371 Rocket 3.2 17:57:14 10° SSW 18:02:03 85° ESE 18:05:57 16° NNE
Aureole 2 Rocket 3.9 17:59:47 10° SSE 18:01:49 24° SE 18:01:49 24° SE
FENGYUN 3A 4.0 17:58:51 10° SE 18:03:48 40° ENE 18:08:48 10° N
Meteor 1-27 4.2 18:00:26 10° N 18:06:14 72° ENE 18:12:03 10° SSE
Cosmos 836 Rocket 4.4 18:01:11 10° SSW 18:06:25 90° WNW 18:11:03 14° NNE
Cosmos 1151 Rocket 3.2 18:02:25 10° NNW 18:06:42 73° W 18:10:57 10° S
Cosmos 1500 Rocket 4.1 18:04:57 10° SSW 18:09:12 59° W 18:13:31 10° N
ATLAS 5 CENTAUR R/B 4.3 18:10:11 10° N 18:11:51 11° N 18:12:52 11° NNE
Cosmos 1340 Rocket 2.8 18:10:19 10° S 18:14:01 52° ESE 18:14:01 52° ESE
Lacrosse 5 3.5 18:10:06 10° WNW 18:14:16 24° NNW 18:16:32 18° NNE
Cosmos 2219 Rocket 2.3 18:09:23 10° SSW 18:15:02 75° WNW 18:19:38 16° NNE
Cosmos 2278 Rocket 2.2 18:11:21 10° NNW 18:17:04 86° WSW 18:22:45 10° SSE
Timation 1 Rocket 4.4 18:11:47 10° NNW 18:17:44 56° ENE 18:20:58 27° SE
METEOR-M 4.1 18:13:27 10° SSE 18:18:49 84° WSW 18:24:13 10° NNW
Meteor 2-10 3.9 18:14:00 10° N 18:19:06 89° E 18:24:16 10° S
Cosmos 44 Rocket 3.4 18:15:41 10° SW 18:20:49 83° NW 18:23:07 34° NNE
SL-14 R/B 3.8 18:21:46 10° SSW 18:25:37 59° W 18:28:31 17° N
NOSS 0 Rocket 3.9 18:21:45 10° SSW 18:27:59 84° WNW 18:32:07 23° NNE
OTV 4 2.8 18:27:21 10° WSW 18:29:10 18° SSW 18:29:10 18° SSW
Resurs 01 Rocket 1.6 18:31:09 62° NE 18:31:09 62° NE 18:35:12 10° N
Cosmos 372 Rocket 4.2 18:30:37 10° NNW 18:35:42 68° WSW 18:40:45 10° S
COSMOS 2428 4.3 18:33:13 10° WSW 18:38:15 31° NW 18:43:18 10° N
Cosmos 2237 Rocket 2.3 18:38:32 10° SSW 18:44:08 72° WNW 18:46:42 33° NNE
SL-16 R/B 2.5 18:42:27 10° S 18:46:58 49° SSE 18:46:58 49° SSE
Lacrosse 5 rocket 2.2 18:44:38 10° NW 18:47:13 41° NW 18:47:13 41° NW
Cosmos 2369 Rocket 4.3 18:45:11 10° N 18:45:53 12° N 18:45:53 12° N
Cosmos 2084 4.1 18:45:30 10° WSW 18:48:51 45° WNW 18:48:51 45° WNW
USA 215 4.3 18:43:49 10° SSE 18:49:58 42° SW 18:56:09 10° WNW
Cosmos 304 Rocket 4.1 18:45:43 10° SSW 18:49:27 53° S 18:49:27 53° S
Cosmos 540 Rocket 4.1 18:46:56 10° SW 18:51:59 54° WNW 18:54:24 29° N
Cosmos 2297 3.6 18:49:06 10° NNW 18:54:51 89° WSW 18:55:55 61° SSE
Nadezhda 4 Rocket 4.0 19:03:58 10° S 19:10:12 79° W 19:13:56 27° N
Spot 2 Rocket 4.1 19:07:15 10° S 19:12:10 53° W 19:17:07 10° NNW
ALOS 4.0 19:27:29 10° SSW 19:31:35 30° W 19:35:42 10° NNW
CZ-4C R/B 4.5 19:34:46 10° NNW 19:37:18 18° N 19:37:18 18° N
Cosmos 2333 Rocket 4.1 19:37:37 10° W 19:42:05 23° NW 19:43:40 21° NNW
CENTAUR R/B 4.3 19:38:01 10° WNW 19:43:14 24° NNW 19:44:49 22° N
